Location: Augustenthal
(51.7167°N, 10.2833°E)
Time: 17:08:15
(UTC+00:00)

Cosmos 1867 - Pass Details

Date: 18 May 2021
Orbit: 773 x 802 km, 65.0° (Epoch: 21 June)

Event Time Altitude Azimuth Distance (km) Brightness Sun altitude
Exits shadow 21:23:56 - 202° (SSW) 2,520 5.8 -14.5°
Reaches altitude 10° 21:24:23 10° 202° (SSW) 2,354 5.6 -14.5°
Maximum altitude 21:29:41 57° 124° (SE) 932 3.6 -14.9°
Drops below altitude 10° 21:35:03 10° 47° (NE) 2,384 6.3 -15.2°
Sets 21:37:31 0° 44° (NE) 3,320 7.1 -15.4°
